Location: Brantley
(31.5822°N, 86.2569°W)
Time: 02:33:27
(UTC+00:00)

Transit 2A Rocket - Pass Details

Date: 17 February 2026
Orbit: 583 x 900 km, 66.7° (Epoch: 8 March)

Event Time Altitude Azimuth Distance (km) Brightness Sun altitude
Rises 08:15:42 0° 320° (NW) 3,254 - -52.9°
Reaches altitude 10° 08:18:33 10° 308° (NW) 2,264 - -52.4°
Maximum altitude 08:22:40 25° 254° (WSW) 1,417 - -51.6°
Drops below altitude 10° 08:26:30 10° 200° (SSW) 2,087 - -50.8°
Sets 08:29:02 0° 186° (S) 2,944 - -50.3°
